World > North America > United States > Florida
Hourly regional weather for Spring Hill, FloridaSpring Hill, Florida Regional Hourly Weather

Spring Hill, Florida Regional Weather

regional weather spring hill, flHOURLY REGIONAL WEATHER FOR SPRING HILL, FL
Lat: 30.34N, Lon: 84.39W 
Web Search
Spring Hill Weather Warning NWS WEATHER ALERT FOR THE SPRING HILL, FL AREA - Issued: 515 AM EST Mon Dec 6 2021 Spring Hill Weather Warning  

Helpful Tip: Abbreviated, 7 Day, 14 Day Forecasts. There is a weather forecast for every taste.

Feedback


°F Click to change Spring Hill hourly weather to Imperial units.Click to change Spring Hill hourly weather to Metric units. °C
Spring Hill Weather Map
UTC Time: 12/6/2021, 14:55
Your Time:

Spring Hill, FL Regional Weather

Expires:202112061500;;000419
ASUS42 KTBW 061417
RWRFL 
FLORIDA REGIONAL WEATHER ROUNDUP
NATIONAL WEATHER SERVICE TAMPA BAY RUSKIN FL
900 AM EST MON DEC 06 2021

NOTE: "FAIR" INDICATES FEW OR NO CLOUDS BELOW 12,000 FEET WITH NO
SIGNIFICANT WEATHER AND/OR OBSTRUCTIONS TO VISIBILITY.


FLZ050-056-061-142-242-148-248-149-249-151-251-155-255-
160-260-061500-
WEST CENTRAL FLORIDA
  
CITY           SKY/WX    TMP DP  RH WIND       PRES   REMARKS
CRYSTAL RIVER    N/A     61  59  94 MISG        N/A                   
INVERNESS      LGT RAIN  59  59 100 CALM      30.16R VSB 1/2          
BROOKSVILLE    SUNNY     64  64 100 VRB3      30.15S                  
CLEARWATER AIR FOG       64  64 100 SE5       30.14R VSB 1/4          
ST PETE CLEARW FOG       67  67 100 SE5       30.14R VSB 1/4          
TAMPA INTL     FOG       68  65  90 SE6       30.15R VSB 1/4          
TAMPA EXEC     FOG       66  64  94 CALM      30.16R VSB<1/4          
PLANT CITY     FOG       68  66  94 SE3       30.17R VSB<1/4          
MACDILL AFB    FOG       68  64  88 SE5       30.11R VSB 1/2          
PETER O KNIGHT FOG       68  68 100 CALM      30.15R VSB 1/4          
ST PETERSBURG  FOG       65  65 100 SE7       30.13R VSB 1/4          
SARASOTA       FOG       65  65 100 E3        30.12S VSB<1/4          
VENICE         FOG       64  64 100 E3        30.15R VSB 1/4          

STATION/POSITION SKY/WX   TEMP    WIND        PRES    WAVE   SWELL
                          AIR SEA DIR/SP/G            HT/PER HT/PER
                          (F)     (DEG/KT/KT) (MB)    (FT/S) (FT/S)
27.3N   84.3W                 75                N/A     1/ 3
CLEARWATER BEACH           66 67  110/  5/  9 1020.6R
MIDDLE TAMPA BAY           63     150/  9/ 10 1020.1R
VENICE                     62 67   40/  1/  2 1020.2R

$$

SKY/WX - Weather  TMP - Temperature  DP - Dew Point  RH - Relative Humidity
WIND - Wind Direction/Speed PRES - Barometric Pressure VSB - Visibility
WCI - Wind Chill Index E13G22 Wind - East Wind 13 mph/Gusts of 22 mph